Location: Comstock Ranch
(38.0499°N, 120.2627°W)
Time: 20:09:55
(UTC+00:00)

NOSS 3-2 (A) - Pass Details

Date: 08 September 2024
Orbit: 700 x 1505 km, 63.4° (Epoch: 09 October)

Event Time Altitude Azimuth Distance (km) Brightness Sun altitude
Exits shadow 12:35:00 10° 211° (SSW) 2,239 5.0 -12.8°
Reaches altitude 10° 12:35:05 10° 211° (SSW) 2,206 4.9 -12.8°
Maximum altitude 12:40:04 90° 301° (WNW) 787 3.0 -11.9°
Drops below altitude 10° 12:45:51 10° 33° (NNE) 2,553 6.5 -10.8°
Sets 12:48:35 0° 33° (NNE) 3,616 7.3 -10.2°
